Regional Weather Roundup
Issued by NWS

Home | Current Version | Previous Version | Graphics & Text | Print | Product List | Glossary On
Versions: 1 2 3 4 5 6 7 8 9 10 11 12 13 14 15 16 17 18 19 20 21 22 23 24 25 26 27 28 29 30 31 32 33 34 35 36 37 38 39 40 41 42 43 44 45 46 47 48 49 50
564
ASUS45 KCYS 240810
RWRWY

WYOMING REGIONAL WEATHER ROUNDUP
NATIONAL WEATHER SERVICE CHEYENNE WY
200 AM MDT SUN JUL 24 2016

NOTE:  "FAIR" INDICATES FEW OR NO CLOUDS BELOW 12,000 FEET
WITH NO SIGNIFICANT WEATHER AND/OR OBSTRUCTIONS TO VISIBILITY.

WYZ001-240900-
YELLOWSTONE NATIONAL PARK

CITY           SKY/WX    TMP DP  RH WIND       PRES   REMARKS
LK YELLOWSTONE   N/A     41  34  76 CALM      30.35F
W YELLOWSTONE  NOT AVBL

$$
WYZ002>013-054>058-071-098>099-240900-
NORTHERN WYOMING

CITY           SKY/WX    TMP DP  RH WIND       PRES   REMARKS
JACKSON        FAIR      39  28  65 N8        30.25F WCI  34
CODY           FAIR      57  37  47 SE8       30.19S
GREYBULL       MOCLDY    72  40  31 NW13      30.08R
WORLAND        FAIR      62  39  42 SW7       30.11S
SHERIDAN       FAIR      57  43  59 SE5       30.15S
BUFFALO        FAIR      60  38  43 SW8       30.21F
GILLETTE       FAIR      52  38  58 SW5       30.16R
HULETT         FAIR      63  41  45 E8        30.17S
NEWCASTLE      FAIR      68  32  26 CALM      30.13R

$$
WYZ014>020-022>026-101>103-240900-
CENTRAL WYOMING

CITY           SKY/WX    TMP DP  RH WIND       PRES   REMARKS
BIG PINEY      FAIR      48  23  37 CALM      30.29S
PINEDALE       FAIR      43  30  61 N5        30.30S
DUBOIS         FAIR      50  23  34 W9        30.28F HAZE
LANDER         FAIR      67  33  28 VRB3      30.20R
RIVERTON       FAIR      68  32  26 N9        30.19R
CASPER         FAIR      65  38  36 NE15      30.13R
DOUGLAS          N/A    N/A N/A N/A MISG      30.13F

$$
WYZ021-027>030-104>119-240900-
SOUTHERN WYOMING

CITY           SKY/WX    TMP DP  RH WIND       PRES   REMARKS
EVANSTON       FAIR      59  22  24 CALM      30.29R
KEMMERER         N/A     54  27  35 N8        30.30S
FORT BRIDGER   FAIR      57  20  24 S6        30.30S
ROCK SPRINGS   FAIR      61  20  20 VRB5      30.26R
DIXON          FAIR      59  40  48 NE5       30.27R
RAWLINS        FAIR      64  15  15 W12       30.22F
SARATOGA       FAIR      54  36  50 CALM      30.26F
LARAMIE        FAIR      60  47  61 S10       30.27R
CHEYENNE       FAIR      69  49  48 W12       30.25R
TORRINGTON     FAIR      67  51  56 NE7       30.09R
PINE BLUFFS    FAIR      64  54  68 SW12      30.14F

$$




USA.gov is the U.S. government's official web portal to all federal, state and local government web resources and services.